TimeEST,TemperatureF,Dew PointF,Humidity,Sea Level PressureIn,VisibilityMPH,Wind Direction,Wind SpeedMPH,Gust SpeedMPH,PrecipitationIn,Events,Conditions,WindDirDegrees,DateUTC
12:54 AM,30.0,27.0,88,29.65,1.2,NE,19.6,28.8,0.01,Snow,Light Snow,50,2012-12-27 05:54:00
1:10 AM,30.2,26.6,86,29.61,2.5,NE,18.4,28.8,0.00,Snow,Light Snow,50,2012-12-27 06:10:00
1:27 AM,30.2,26.6,86,29.60,1.8,NE,21.9,33.4,0.00,Snow,Light Snow,40,2012-12-27 06:27:00
1:35 AM,30.2,26.6,86,29.59,2.0,NE,20.7,34.5,0.00,Snow,Light Snow,40,2012-12-27 06:35:00
1:45 AM,30.2,26.6,86,29.59,1.2,NNE,16.1,27.6,0.01,Snow,Light Snow,20,2012-12-27 06:45:00
1:54 AM,30.0,27.0,88,29.61,1.5,NE,16.1,27.6,0.01,Snow,Light Snow,50,2012-12-27 06:54:00
2:05 AM,30.2,26.6,86,29.56,1.2,NE,15.0,28.8,0.00,Snow,Light Snow,40,2012-12-27 07:05:00
2:27 AM,30.2,26.6,86,29.55,1.8,NE,17.3,32.2,0.01,Snow,Light Snow,50,2012-12-27 07:27:00
2:34 AM,30.2,26.6,86,29.54,2.0,NE,13.8,29.9,0.01,Snow,Light Snow,50,2012-12-27 07:34:00
2:47 AM,30.2,26.6,86,29.53,1.5,NE,17.3,29.9,0.01,Snow,Light Snow,40,2012-12-27 07:47:00
2:54 AM,30.0,27.0,88,29.56,1.5,NNE,17.3,31.1,0.01,Snow,Light Snow,30,2012-12-27 07:54:00
3:11 AM,30.2,28.4,93,29.52,1.2,NE,16.1,29.9,0.01,Snow,Light Snow,50,2012-12-27 08:11:00
3:41 AM,30.2,26.6,86,29.52,2.0,NE,17.3,21.9,0.02,Snow,Light Snow,50,2012-12-27 08:41:00
3:54 AM,30.0,27.0,88,29.54,1.8,NE,17.3,21.9,0.03,Snow,Light Snow,50,2012-12-27 08:54:00
4:09 AM,30.2,26.6,86,29.50,1.2,NE,12.7,25.3,0.01,Snow,Light Snow,40,2012-12-27 09:09:00
4:28 AM,30.2,26.6,86,29.47,2.5,NNE,15.0,24.2,0.01,Snow,Light Snow,30,2012-12-27 09:28:00
4:54 AM,30.0,27.0,88,29.50,4.0,NE,12.7,-,0.02,Snow,Light Snow,40,2012-12-27 09:54:00
5:26 AM,30.2,26.6,86,29.45,6.0,ENE,16.1,27.6,0.00,,Overcast,60,2012-12-27 10:26:00
5:54 AM,30.0,27.0,88,29.47,4.0,NE,17.3,27.6,0.00,Snow,Light Snow,50,2012-12-27 10:54:00
6:54 AM,30.9,27.0,85,29.47,2.5,NE,17.3,23.0,0.02,Snow,Light Snow,50,2012-12-27 11:54:00
6:59 AM,30.2,26.6,86,29.43,1.0,NE,16.1,24.2,0.01,Snow,Light Snow,50,2012-12-27 11:59:00
7:04 AM,30.2,26.6,86,29.42,0.8,NE,15.0,25.3,0.02,Snow,Light Snow,50,2012-12-27 12:04:00
7:23 AM,30.2,26.6,86,29.41,1.2,ENE,19.6,32.2,0.05,Snow,Light Snow,60,2012-12-27 12:23:00
7:30 AM,30.2,26.6,86,29.41,2.0,ENE,18.4,31.1,0.07,Snow,Light Snow,60,2012-12-27 12:30:00
7:44 AM,30.2,28.4,93,29.40,3.0,ENE,24.2,35.7,0.08,,Overcast,60,2012-12-27 12:44:00
7:54 AM,30.9,28.0,89,29.42,2.0,ENE,20.7,28.8,0.11,Rain,Light Freezing Rain,60,2012-12-27 12:54:00
8:08 AM,30.2,28.4,93,29.38,3.0,ENE,12.7,29.9,0.02,Rain,Light Freezing Rain,60,2012-12-27 13:08:00
8:54 AM,32.0,28.0,85,29.42,5.0,ENE,12.7,23.0,0.05,,Overcast,60,2012-12-27 13:54:00
9:21 AM,32.0,28.4,87,29.39,5.0,NE,8.1,-,0.01,,Overcast,40,2012-12-27 14:21:00
9:42 AM,32.0,28.4,87,29.40,2.0,NNE,8.1,-,0.03,Snow,Light Snow,30,2012-12-27 14:42:00
9:54 AM,32.0,28.0,85,29.43,1.8,NNE,8.1,-,0.04,Snow,Light Snow,20,2012-12-27 14:54:00
10:32 AM,30.2,28.4,93,29.41,0.8,North,8.1,-,0.02,Snow,Light Snow,10,2012-12-27 15:32:00
10:54 AM,30.9,28.9,92,29.43,0.5,North,8.1,-,0.04,Fog-Snow,Snow,360,2012-12-27 15:54:00
11:09 AM,32.0,30.2,93,29.40,0.2,North,5.8,-,0.03,Fog-Snow,Snow,10,2012-12-27 16:09:00
11:14 AM,32.0,30.2,93,29.40,0.5,NNW,5.8,-,0.03,Fog-Snow,Snow,340,2012-12-27 16:14:00
11:54 AM,28.9,26.1,89,29.44,0.8,WNW,8.1,-,0.07,Snow,Light Snow,300,2012-12-27 16:54:00
12:21 PM,26.6,24.8,93,29.41,1.0,WNW,13.8,20.7,0.01,Snow,Light Snow,300,2012-12-27 17:21:00
12:38 PM,26.6,24.8,93,29.41,1.8,NW,16.1,21.9,0.01,Snow,Light Snow,310,2012-12-27 17:38:00
12:45 PM,26.6,24.8,93,29.41,2.5,NW,13.8,23.0,0.01,,Overcast,310,2012-12-27 17:45:00
12:52 PM,27.0,23.0,85,29.45,6.0,NW,12.7,21.9,0.01,,Overcast,320,2012-12-27 17:52:00
1:49 PM,26.6,23.0,86,29.44,2.5,NW,11.5,21.9,0.00,Snow,Light Snow,320,2012-12-27 18:49:00
1:54 PM,27.0,21.9,81,29.47,2.0,NW,16.1,24.2,0.00,Snow,Light Snow,310,2012-12-27 18:54:00
2:00 PM,26.6,21.2,80,29.44,1.8,NW,16.1,26.5,0.00,Snow,Light Snow,310,2012-12-27 19:00:00
2:07 PM,26.6,21.2,80,29.44,2.0,NW,13.8,24.2,0.00,Snow,Light Snow,320,2012-12-27 19:07:00
2:32 PM,26.6,21.2,80,29.46,1.5,NW,21.9,27.6,0.00,Snow,Light Snow,310,2012-12-27 19:32:00
2:54 PM,27.0,21.9,81,29.50,1.0,NW,15.0,26.5,0.00,Snow,Light Snow,320,2012-12-27 19:54:00
3:44 PM,26.6,21.2,80,29.49,1.8,NW,16.1,23.0,0.00,Snow,Light Snow,320,2012-12-27 20:44:00
3:51 PM,26.6,21.2,80,29.50,2.0,NNW,17.3,25.3,0.00,Snow,Light Snow,330,2012-12-27 20:51:00
3:54 PM,26.1,21.0,81,29.54,2.5,NNW,13.8,25.3,0.00,Snow,Light Snow,330,2012-12-27 20:54:00
4:06 PM,26.6,21.2,80,29.50,3.0,NNW,16.1,28.8,0.00,Snow,Light Snow,330,2012-12-27 21:06:00
4:54 PM,26.1,21.0,81,29.57,7.0,NNW,11.5,26.5,0.00,,Overcast,330,2012-12-27 21:54:00
5:40 PM,26.6,21.2,80,29.54,10.0,NW,10.4,-,N/A,,Overcast,310,2012-12-27 22:40:00
5:54 PM,26.1,21.9,84,29.59,10.0,NW,9.2,17.3,N/A,,Overcast,310,2012-12-27 22:54:00
6:03 PM,26.6,21.2,80,29.55,10.0,NW,11.5,17.3,N/A,,Overcast,320,2012-12-27 23:03:00
7:12 PM,24.8,21.2,86,29.60,10.0,NW,10.4,19.6,N/A,,Overcast,310,2012-12-28 00:12:00
7:52 PM,24.8,21.2,86,29.62,10.0,WNW,10.4,19.6,N/A,,Overcast,300,2012-12-28 00:52:00
7:54 PM,24.1,21.9,91,29.66,10.0,WNW,10.4,19.6,N/A,,Overcast,300,2012-12-28 00:54:00
8:28 PM,23.0,19.4,86,29.64,9.0,NW,16.1,23.0,N/A,,Overcast,310,2012-12-28 01:28:00
8:54 PM,21.9,19.0,89,29.70,8.0,NW,12.7,24.2,N/A,,Overcast,310,2012-12-28 01:54:00
9:54 PM,21.9,19.0,89,29.72,9.0,WNW,15.0,21.9,N/A,,Overcast,290,2012-12-28 02:54:00
10:54 PM,21.0,19.0,92,29.75,4.0,WNW,15.0,24.2,N/A,,Overcast,290,2012-12-28 03:54:00
11:52 PM,21.2,17.6,86,29.71,10.0,West,15.0,21.9,N/A,,Overcast,280,2012-12-28 04:52:00
11:54 PM,21.0,17.1,85,29.76,10.0,WNW,13.8,20.7,N/A,,Overcast,290,2012-12-28 04:54:00